CAPE
0 0 0 0 0 0 0 8 107 4 0 12 70 387 919 874 824 406 208 574 368 218 569 784 664 393 280 88 91 335 318 278 51 1 0 0 0 7 6 10 7 17 28 26 0 4 20 0 0
0 0 0 0 0 0 0 73 63 0 0 18 242 478 68 936 833 457 188 443 414 289 539 1012 720 508 367 210 194 446 346 144 27 0 0 0 0 2 5 11 22 34 27 30 19 20 9 0 0
0 0 0 0 0 0 0 90 34 0 0 160 285 700 709 1049 801 543 227 196 408 424 719 948 803 616 443 285 383 470 264 54 2 0 0 0 0 0 0 16 28 26 17 17 22 10 0 0 0
0 0 0 0 0 3 7 0 1 103 99 174 101 786 1087 1171 966 614 258 115 202 512 706 913 830 642 473 327 401 375 171 40 0 0 0 0 0 4 0 6 24 25 23 17 11 3 0 0 0
0 0 0 0 0 0 0 0 0 6 84 88 286 624 724 1073 825 355 154 93 100 674 644 905 887 798 634 417 453 297 108 27 0 0 0 2 0 7 7 8 13 20 16 10 5 1 0 0 0
0 0 0 0 0 3 0 0 0 0 8 68 174 1149 1138 1164 652 348 188 104 270 499 595 842 871 792 693 538 395 244 82 16 0 0 0 2 0 0 7 6 7 7 11 5 0 3 0 0 0
0 0 0 0 0 0 0 0 0 0 0 0 0 665 1238 1194 683 383 239 226 418 348 458 790 854 773 572 387 263 154 57 12 0 0 0 0 0 2 2 5 1 1 11 3 5 3 0 0 0
0 0 0 0 0 0 0 0 0 0 63 80 205 899 704 1008 609 416 373 645 474 390 325 393 601 597 387 298 191 110 40 1 0 0 0 2 5 7 5 3 5 5 7 2 4 1 0 0 0
0 0 0 0 0 0 0 0 0 0 296 273 508 439 0 1048 745 570 625 777 459 459 444 467 381 464 447 327 181 86 24 4 0 0 0 0 5 8 3 0 0 4 5 3 3 0 0 0 0
0 0 0 0 0 0 0 0 0 0 113 66 225 378 1192 1206 917 835 830 910 631 507 459 551 500 411 361 310 155 85 14 0 0 0 0 6 3 0 4 0 0 0 0 0 0 0 0 0 0
0 0 0 0 0 0 0 0 0 0 1 0 63 160 737 1134 1352 1139 1022 879 737 657 586 495 465 392 318 283 209 145 42 0 0 0 0 29 10 5 3 0 0 0 0 0 0 0 0 0 0
0 0 0 0 0 0 0 0 0 0 0 0 1 0 12 78 144 407 828 939 693 751 560 610 536 351 333 199 264 160 75 15 6 0 0 40 17 1 0 0 0 0 0 0 0 0 0 1 0
0 0 0 0 0 0 0 0 0 0 0 0 0 0 0 0 0 1 0 0 5 608 659 649 607 623 522 307 298 231 108 45 13 2 28 1 29 1 0 0 0 0 4 0 0 1 0 0 0
0 0 0 0 0 0 0 0 0 0 0 0 0 0 0 0 0 1 2 1 1 1 2 11 430 733 584 252 334 311 239 39 14 13 26 2 16 12 10 13 0 0 1 0 6 0 0 0 0
0 0 0 0 0 0 0 0 0 0 0 0 0 0 0 0 0 0 1 5 6 6 8 0 0 412 499 286 460 433 291 92 71 16 16 0 17 8 32 13 10 0 10 13 7 0 1 1 0
0 0 0 0 0 0 0 0 0 0 0 0 0 0 0 0 0 0 0 0 5 4 5 2 3 18 324 345 555 403 382 296 72 21 1 0 1 4 0 0 2 1 5 4 1 0 6 1 0
0 0 0 0 0 0 0 0 0 0 0 0 0 0 0 0 0 0 0 0 0 0 2 1 1 3 0 173 257 381 371 296 112 58 21 0 0 0 0 8 0 0 0 0 6 0 8 4 0
0 0 0 0 0 0 0 0 0 0 0 0 0 0 0 0 0 0 0 0 0 0 0 0 0 2 1 0 1 26 323 338 167 146 83 0 4 2 0 6 11 0 0 0 4 5 8 10 2
0 0 0 0 0 0 0 0 0 0 0 0 0 0 0 0 0 0 0 0 0 0 0 0 0 0 1 0 0 103 34 234 266 185 51 37 26 18 0 0 23 0 0 0 0 4 11 0 7
0 0 0 0 0 0 0 0 0 0 0 0 0 0 0 0 0 0 0 0 0 0 0 0 0 2 4 5 4 3 169 229 269 229 85 163 34 21 35 0 8 1 0 0 0 0 0 0 1
0 0 0 0 0 0 0 0 0 0 0 0 0 0 0 0 0 0 0 0 0 0 0 0 0 0 1 3 4 3 241 44 154 66 235 228 229 66 16 0 1 0 0 0 0 0 0 0 0
0 0 0 0 0 0 0 0 0 0 0 0 0 0 0 0 0 0 0 0 0 0 0 0 0 0 0 0 5 5 3 47 35 124 277 227 265 79 45 54 0 1 0 0 2 0 0 1 0
0 0 0 0 0 0 0 0 0 0 0 0 0 0 0 0 0 0 0 0 0 0 0 0 0 0 0 0 1 7 3 1 262 223 236 162 92 23 58 87 38 0 0 0 0 0 0 0 0
0 0 0 0 0 0 0 0 0 0 0 0 0 0 0 0 0 0 0 0 0 0 0 0 0 0 0 0 0 2 6 1 0 338 285 143 33 17 9 114 99 0 0 0 0 0 0 0 0
0 0 0 0 0 0 0 0 0 0 0 0 0 0 0 0 0 0 0 0 0 0 0 0 0 0 0 0 0 0 2 6 4 161 303 303 252 255 201 117 136 21 0 0 0 0 0 0 0
0 0 0 0 0 0 0 0 0 0 0 0 0 0 0 0 0 0 0 0 0 0 0 0 0 0 0 0 0 1 2 5 5 4 192 303 282 265 296 203 127 94 2 0 3 3 0 0 0
0 0 0 0 0 0 0 0 0 0 0 0 0 0 0 0 0 0 0 0 0 0 0 0 0 0 0 0 1 1 1 1 1 5 2 200 444 341 254 195 148 138 83 26 5 22 19 29 43
0 0 0 0 0 0 0 0 0 0 0 0 0 0 0 0 0 0 0 0 0 0 0 0 1 0 0 0 1 1 1 0 0 2 4 117 365 373 328 273 181 102 88 78 111 78 60 44 61
0 0 0 0 0 1 1 0 0 0 0 0 0 0 0 0 0 0 0 0 0 0 1 0 0 0 0 0 0 0 1 0 0 2 1 2 245 285 141 144 81 21 8 56 54 100 67 48 8
0 0 0 0 0 0 0 0 0 0 0 0 0 0 0 0 0 0 0 0 0 2 1 2 1 0 0 0 0 1 2 0 0 1 0 0 72 186 128 30 9 0 7 18 0 5 1 2 12
CIN
0 0 0 0 0 0 0 -24 -20 -112 0 -66 -76 -15 -37 -15 -15 -35 -47 -115 -247 -288 -144 -61 -63 -71 -96 -165 -79 -2 -1 -3 -59 -39 0 0 0 -4 -5 -5 -6 -1 -0 -0 -0 -0 -0 0 0
0 0 0 0 0 0 0 -63 -118 0 0 -62 -23 -84 -91 -50 -99 -131 -173 -201 -194 -264 -186 -33 -70 -61 -48 -93 -51 -1 -0 -5 -107 0 0 0 0 -6 -7 -7 -4 -0 -0 -0 -0 0 -0 0 0
0 0 0 0 0 0 -3 -9 -119 0 0 -30 -44 -12 -57 -38 -113 -128 -181 -253 -215 -134 -152 -97 -50 -56 -39 -56 -7 -17 -4 -34 -24 0 0 0 0 0 0 -7 -1 -1 0 -0 0 -0 0 0 0
0 0 0 0 0 -4 -12 0 -1 -27 -27 -11 -25 -44 -64 -49 -98 -150 -198 -271 -243 -136 -91 -112 -69 -58 -39 -45 -15 -12 -15 -65 0 0 0 0 0 -6 0 -6 -2 -4 -1 -1 -0 -0 0 0 0
0 0 0 0 0 0 0 0 0 -0 -3 -10 -28 -77 -35 -52 -140 -225 -301 -292 -250 -115 -117 -74 -50 -58 -40 -20 -69 -30 -48 -73 0 0 0 -5 -3 -5 -6 -7 -7 -7 -4 -2 -0 -0 0 0 0
0 0 0 0 0 -10 0 0 0 0 -13 -20 -35 -29 -59 -62 -194 -233 -281 -321 -212 -150 -101 -53 -13 -6 -10 -26 -11 -24 -84 -110 0 0 0 -5 0 0 -7 -8 -7 -5 -5 -2 0 -1 0 0 0
0 0 0 0 0 0 0 0 0 0 0 0 -1 -6 -20 -87 -165 -214 -250 -259 -224 -189 -116 -50 -10 -5 -28 -28 -23 -36 -78 -151 0 0 0 0 0 -9 -10 -9 -9 -7 -2 -1 -0 -1 0 0 0
0 0 0 0 0 0 0 0 0 0 -3 -19 -25 -31 -6 -27 -122 -205 -196 -138 -208 -195 -182 -122 -24 -31 -78 -47 -46 -61 -111 -7 0 0 0 -7 -8 -10 -10 -6 -7 -5 -1 -1 -0 -2 0 0 0
0 0 0 0 0 0 0 0 0 0 -32 -50 -125 -165 0 -29 -51 -150 -144 -117 -184 -169 -150 -100 -93 -44 -34 -41 -40 -69 -128 -89 0 0 0 0 -6 -5 -7 0 0 -8 -3 -0 -0 -0 0 0 0
0 0 0 0 0 0 0 0 0 0 -85 -169 -256 -226 -37 -3 -35 -75 -94 -99 -144 -161 -138 -103 -88 -87 -56 -42 -56 -81 -136 0 0 0 0 -4 -1 -0 -19 0 0 0 0 -0 0 0 0 0 0
0 0 0 0 0 0 0 0 0 0 -11 0 -325 -322 -133 -73 -6 -16 -33 -83 -99 -96 -103 -94 -68 -61 -63 -58 -52 -47 -87 0 0 0 0 -6 -16 -36 -39 0 0 0 0 0 0 0 0 0 0
0 0 0 0 0 0 0 0 0 0 0 0 0 0 -327 -363 -269 -169 -49 -30 -82 -63 -64 -52 -38 -50 -44 -50 -28 -46 -56 -93 -5 0 0 -10 -29 -6 0 0 0 0 0 0 0 0 0 -1 -0
0 0 0 0 0 0 0 0 0 0 0 0 0 0 0 0 0 0 0 0 -42 -21 -14 -18 -32 -21 -26 -46 -28 -32 -50 -64 -73 -7 -5 -3 -8 -5 0 0 0 0 -12 0 0 -3 0 0 0
0 0 0 0 0 0 0 0 0 0 0 0 0 0 0 0 0 0 0 0 0 0 -100 -70 -43 -9 -11 -42 -18 -14 -15 -55 -20 -17 -3 -2 -4 -20 -17 -5 0 -2 -14 0 -13 -1 0 0 0
0 0 0 0 0 0 0 0 0 0 0 0 0 0 0 0 0 0 0 0 0 0 0 0 0 -10 -3 -36 -11 -6 -4 -30 -33 -25 -5 0 -7 -4 -1 -2 -14 -1 -2 -4 -3 -1 -2 -2 0
0 0 0 0 0 0 0 0 0 0 0 0 0 0 0 0 0 0 0 0 0 0 0 0 0 -88 -3 -4 -4 -6 -3 -6 -30 -67 -5 0 -4 -3 0 0 -2 -0 -4 -3 -1 0 -1 -2 0
0 0 0 0 0 0 0 0 0 0 0 0 0 0 0 0 0 0 0 0 0 0 0 0 0 0 0 -23 -4 -4 -4 -21 -44 -49 -74 0 0 0 0 -2 0 0 0 0 -3 -1 -1 -2 0
0 0 0 0 0 0 0 0 0 0 0 0 0 0 0 0 0 0 0 0 0 0 0 0 0 0 0 0 -58 -36 -8 -4 -14 -11 -33 0 -27 -1 0 -4 -3 0 0 0 -2 -4 -2 -2 -5
0 0 0 0 0 0 0 0 0 0 0 0 0 0 0 0 0 0 0 0 0 0 0 0 0 0 0 0 0 -10 -121 -12 -7 -13 -36 -38 -28 -36 0 0 -1 0 0 0 0 -4 -2 -2 -3
0 0 0 0 0 0 0 0 0 0 0 0 0 0 0 0 0 0 0 0 0 0 0 0 0 0 0 0 0 0 -10 -2 -12 -6 -15 -34 -87 -59 -50 0 -5 -3 0 0 0 0 0 0 -3
0 0 0 0 0 0 0 0 0 0 0 0 0 0 0 0 0 0 0 0 0 0 0 0 0 0 0 0 0 0 -14 -1 -5 -9 -21 -6 -26 -69 -86 0 -1 0 0 0 0 0 0 0 0
0 0 0 0 0 0 0 0 0 0 0 0 0 0 0 0 0 0 0 0 0 0 0 0 0 0 0 0 0 0 0 -51 -79 -23 -1 -5 -5 -19 -68 -59 0 -2 0 -0 -5 -1 0 -3 0
0 0 0 0 0 0 0 0 0 0 0 0 0 0 0 0 0 0 0 0 0 0 0 0 0 0 0 0 0 0 0 0 -15 -14 -5 -16 -41 -83 -39 -49 -48 0 -4 0 0 0 0 0 0
0 0 0 0 0 0 0 0 0 0 -33 0 0 0 0 0 0 0 0 0 0 0 0 0 0 0 0 0 0 0 0 0 0 -3 -1 -20 -78 -141 -124 -25 -9 -4 0 0 0 0 0 0 0
0 0 0 0 0 0 0 0 0 0 0 0 0 0 0 0 0 0 0 0 0 0 0 0 0 0 0 0 0 0 0 0 0 -33 -4 -0 -5 -8 -19 -22 -4 -38 0 0 0 0 0 0 0
0 0 0 0 0 0 0 0 0 0 0 0 0 0 0 0 0 0 0 0 0 0 0 0 0 0 0 0 -1 0 0 0 0 0 -1 -10 -3 -35 -10 -28 -21 -65 -49 0 -26 -2 0 -0 0
0 -1 0 0 0 0 0 0 0 0 0 0 0 0 0 0 0 0 0 0 0 0 0 0 0 0 0 0 -0 -0 0 0 0 0 0 0 -1 -6 -23 -16 -12 -8 -21 -11 -34 -10 -13 -2 -7
0 0 0 0 -0 0 0 -5 0 0 0 0 0 0 0 0 0 0 0 0 0 0 0 0 -1 -1 -0 -1 -1 -0 0 0 0 0 0 -33 -2 -4 -14 -12 -10 -17 -3 -34 -7 -10 -11 -11 -4
0 0 0 0 0 -0 -0 -0 0 0 0 0 0 0 0 0 0 0 0 0 0 -0 -1 -1 -2 -1 -0 -0 -1 -0 0 0 0 0 0 -6 -4 -9 -15 -11 -20 -19 -16 -15 -8 -7 -8 -3 -5
0 0 0 0 0 -0 0 0 0 0 0 0 0 0 0 0 0 0 0 0 0 -1 -1 -1 -2 -1 0 0 -1 -0 0 0 0 0 0 0 -46 -4 -27 -70 -113 -6 -120 -47 -26 -28 -61 -18 -8
Wind_Speed
29 28 27 28 23 22 28 25 13 12 18 15 12 18 19 14 16 10 14 20 16 14 10 11 11 11 11 10 9 8 7 7 8 8 10 10 11 13 15 17 20 23 25 24 22 19 19 22 22
28 27 26 23 30 31 23 13 15 13 8 8 9 23 21 18 16 13 12 19 19 16 9 9 10 9 8 9 10 8 8 7 7 7 10 9 10 12 14 16 19 22 24 24 22 19 18 17 17
28 27 26 21 32 32 19 14 9 9 9 11 19 20 16 15 15 12 15 19 22 19 7 11 11 10 8 8 8 8 8 7 6 6 8 9 10 12 13 15 17 19 22 23 23 18 16 12 6
24 23 25 25 35 27 14 15 14 6 12 17 17 17 18 15 13 15 20 19 20 21 18 11 13 12 10 8 9 9 8 7 6 5 7 9 10 12 12 13 15 17 20 21 22 18 13 11 4
27 24 24 31 35 34 13 12 14 14 11 15 20 12 15 13 16 20 21 22 22 16 16 17 6 12 12 10 8 8 8 7 7 5 6 8 10 11 12 13 14 16 17 20 22 19 13 9 5
26 28 31 34 32 23 10 13 16 16 16 17 15 11 12 13 16 16 19 20 18 16 19 16 7 6 7 8 6 6 7 7 6 6 5 7 9 10 11 12 12 13 15 17 19 19 13 10 7
27 30 36 35 31 18 12 14 16 17 18 19 15 14 5 8 15 17 16 18 19 19 18 17 16 8 4 5 5 6 4 5 5 5 5 7 8 9 11 11 11 12 13 16 18 19 15 10 9
29 31 36 36 36 16 11 13 16 18 16 16 17 18 9 10 14 15 15 14 15 16 16 17 19 15 2 4 5 5 4 3 4 5 5 7 7 8 9 10 11 11 12 13 15 17 18 16 11
28 30 32 32 30 12 13 16 16 18 16 14 16 19 9 26 10 12 10 8 10 12 11 14 13 13 10 2 2 2 4 4 3 3 4 6 5 7 7 9 10 10 10 10 12 14 16 19 15
26 29 33 22 18 10 11 14 17 19 17 21 20 19 7 12 9 7 7 7 6 9 11 9 9 10 10 5 4 1 3 1 1 1 3 3 4 6 6 8 8 9 8 9 10 13 16 17 18
27 33 23 19 20 20 12 14 19 22 19 21 22 17 14 13 6 1 1 3 2 5 6 7 7 7 8 6 3 3 1 2 1 2 2 5 3 5 6 7 7 7 7 7 7 10 14 16 14
24 28 22 20 19 20 16 15 17 18 17 17 18 18 17 17 16 15 12 3 2 3 3 4 5 5 5 4 5 3 4 4 1 2 1 1 3 4 6 6 5 6 5 6 5 8 11 11 8
22 29 19 22 22 22 19 17 14 17 13 15 16 17 18 18 18 18 18 15 15 9 11 9 8 7 5 5 5 4 5 7 5 3 5 3 2 3 5 4 4 5 4 5 4 9 9 10 11
23 19 17 20 19 20 19 12 16 17 13 15 16 16 16 17 19 19 19 20 20 19 19 20 21 12 9 7 7 7 5 6 9 9 8 2 5 2 5 5 4 8 2 7 9 8 8 8 8
23 21 21 20 20 20 19 18 18 16 15 16 16 15 16 16 17 19 19 19 22 21 22 23 27 27 13 11 9 8 8 6 8 7 9 7 11 6 9 5 6 8 7 7 9 8 8 8 9
20 20 23 19 18 17 19 23 16 16 16 16 16 15 15 16 17 18 19 21 21 21 20 21 28 26 19 19 11 10 9 9 11 11 10 11 13 10 13 11 13 10 9 7 8 7 9 9 10
18 24 19 18 21 18 17 17 16 16 16 16 16 17 16 15 17 19 19 20 20 21 21 20 23 21 24 40 18 15 11 9 8 12 10 10 11 10 12 11 11 12 8 6 7 9 9 11 11
27 23 21 18 17 21 22 18 17 16 16 17 17 17 18 20 20 20 21 20 22 21 20 21 23 25 25 24 24 31 15 12 9 11 8 8 10 9 11 14 8 10 10 10 12 8 12 14 11
26 26 23 9 16 23 25 27 18 17 18 19 17 19 20 21 21 22 23 24 24 24 23 23 24 25 25 24 26 19 11 12 14 11 10 9 10 9 9 12 11 8 14 12 12 14 14 14 14
28 27 27 24 22 26 29 30 28 20 20 18 20 21 23 24 24 25 25 26 26 26 25 25 26 24 23 24 25 20 17 9 12 11 10 11 6 9 9 12 13 11 14 15 13 14 17 16 14
28 27 28 30 32 31 32 37 32 20 18 18 18 21 23 25 27 27 28 28 28 28 29 28 28 27 27 27 26 23 17 17 9 15 17 19 9 8 12 11 15 13 13 19 17 14 17 16 17
28 24 29 32 36 42 35 42 28 22 20 21 20 23 25 27 28 28 30 30 31 30 30 30 29 29 29 29 29 27 26 23 14 13 10 9 7 7 12 13 16 16 12 18 12 13 15 21 17
27 29 33 34 37 39 39 39 36 17 22 22 23 25 26 27 29 30 31 32 32 32 33 32 32 31 29 30 30 31 31 29 19 12 12 11 9 6 12 16 18 19 16 16 15 13 14 16 19
27 31 32 31 31 39 38 37 41 31 19 18 25 29 30 31 32 32 33 33 34 34 35 36 34 34 32 31 32 32 34 34 33 21 18 16 18 13 9 9 14 18 22 19 17 14 14 15 16
24 28 29 27 26 33 31 30 24 18 17 20 28 32 33 34 35 36 37 37 37 37 38 37 38 38 36 35 33 34 35 35 35 29 22 19 21 22 18 17 13 17 18 19 19 18 17 17 16
23 21 23 27 29 33 27 27 21 17 20 23 27 31 33 34 36 39 40 40 38 40 40 40 40 41 39 37 36 36 36 36 36 32 25 22 22 24 26 20 17 16 17 15 16 19 16 18 17
13 13 13 17 6 26 20 19 17 19 27 28 31 32 35 35 37 39 39 39 42 43 43 43 42 42 41 40 38 38 37 37 38 36 32 27 26 18 12 19 19 18 16 16 16 19 18 21 23
11 9 17 15 24 31 19 28 24 27 31 31 33 35 38 38 39 39 39 43 44 44 44 43 43 44 43 42 40 39 38 38 37 37 35 30 26 22 19 20 21 18 20 20 20 22 21 23 24
16 14 16 14 11 16 26 20 17 26 30 33 36 36 37 39 40 41 40 41 42 42 42 43 43 44 44 43 42 41 40 39 37 36 34 30 31 26 23 19 19 21 17 22 22 25 25 27 20
11 11 12 15 15 10 9 7 7 8 7 30 36 37 36 35 35 36 38 40 40 41 41 43 43 43 43 44 43 42 41 39 38 35 33 28 25 20 18 16 19 20 16 20 28 27 27 22 21
Wind_Direction
274 273 273 257 275 270 236 263 319 323 291 243 284 20 19 9 343 3 59 90 83 87 86 90 94 94 90 85 74 66 61 59 64 59 48 32 27 32 37 41 47 62 68 65 58 47 43 48 54
272 272 264 277 256 251 276 339 328 356 329 246 216 17 2 353 16 50 53 82 88 93 97 92 97 98 93 87 83 72 64 59 64 56 46 29 25 30 31 38 53 61 65 65 57 48 43 41 46
263 259 270 275 250 247 285 321 347 11 58 351 321 10 24 2 39 45 80 86 87 93 96 95 99 101 97 91 84 76 69 62 57 43 39 30 28 31 32 40 47 54 61 66 61 45 41 27 13
271 275 268 271 239 236 287 308 323 7 343 343 357 352 10 26 31 70 91 94 97 98 93 98 103 102 101 97 90 82 73 65 56 35 30 32 28 32 32 37 43 50 57 62 65 49 34 28 302
258 267 272 261 243 245 309 334 312 305 356 337 359 352 352 22 61 91 91 93 99 89 97 99 105 101 101 100 96 87 81 72 62 40 26 30 36 35 37 36 41 47 52 59 66 55 33 22 311
262 257 255 245 227 276 306 308 306 304 317 340 347 8 342 63 81 89 90 94 92 92 104 100 107 113 101 99 96 89 83 75 61 44 29 35 36 38 34 35 36 39 45 53 63 63 32 25 320
263 259 243 240 239 288 310 322 307 313 319 319 321 337 25 78 92 92 89 92 95 98 102 104 104 108 115 95 93 89 81 71 62 47 30 44 43 41 37 33 35 37 42 52 63 66 48 20 352
259 263 252 248 251 305 308 310 309 305 311 325 313 318 339 122 95 92 87 82 87 97 103 107 112 105 131 97 97 89 81 63 55 58 47 40 40 37 32 31 32 35 43 49 55 60 70 66 31
259 259 256 241 279 281 302 292 308 304 321 337 331 336 33 135 87 91 89 73 85 94 104 112 112 108 101 181 132 103 85 72 57 49 56 42 13 15 9 28 28 29 31 35 53 56 71 92 62
258 254 242 278 286 311 306 309 295 299 301 294 305 321 10 92 102 105 109 105 104 108 115 116 118 119 116 110 220 173 97 54 40 33 62 358 16 6 1 9 13 21 18 28 50 65 83 88 87
259 243 288 288 281 289 328 312 311 294 298 300 291 305 311 310 347 150 150 137 115 117 125 134 136 133 129 128 163 236 193 108 90 100 85 315 12 12 350 346 350 355 12 5 26 58 91 113 82
270 266 285 297 291 294 308 312 309 305 301 310 307 301 303 296 293 293 299 267 239 199 213 182 183 177 168 152 163 159 240 241 205 137 314 31 352 346 347 347 359 354 356 12 26 59 104 120 55
280 270 291 288 286 291 298 312 304 308 320 316 315 312 304 300 292 291 288 292 290 264 258 250 235 218 220 195 201 216 235 244 247 244 297 298 326 338 336 330 351 342 342 348 357 322 331 332 339
295 293 296 293 294 293 291 300 301 304 318 319 313 313 310 302 297 289 289 284 281 278 273 268 260 241 233 225 225 235 232 233 249 256 274 310 306 309 325 305 322 309 344 326 305 326 331 338 355
292 288 290 292 292 292 291 287 289 300 307 305 310 314 314 308 304 295 293 291 285 285 281 265 263 256 236 236 227 230 242 235 240 247 263 273 295 298 302 302 306 309 304 310 307 319 324 333 341
294 288 285 287 291 292 289 285 290 300 296 301 304 310 311 313 311 305 301 299 300 294 290 280 281 277 256 250 236 229 229 244 248 252 262 267 276 291 288 295 287 298 306 308 310 319 308 313 318
290 286 283 285 289 294 285 288 290 296 296 300 302 301 306 312 313 310 307 306 307 305 298 292 291 295 289 242 252 239 225 220 236 251 257 262 270 283 284 297 291 289 302 310 308 307 304 302 307
294 292 290 283 293 291 287 284 289 294 292 293 299 301 299 301 306 309 307 306 304 309 308 300 296 293 291 296 284 271 235 239 247 256 257 257 268 275 282 288 290 287 289 288 288 301 295 295 302
299 295 297 337 307 295 286 286 281 288 291 286 291 297 299 299 306 308 308 305 302 303 303 302 300 296 296 293 297 296 240 233 253 255 260 266 273 276 282 287 287 284 278 283 283 285 291 290 295
298 292 287 289 302 302 290 285 283 283 284 285 290 296 297 299 301 303 304 305 303 302 301 299 299 300 298 297 294 298 291 222 255 255 266 261 259 267 276 277 285 280 279 280 283 284 282 289 296
298 291 293 290 298 299 295 284 281 278 283 284 292 294 297 299 298 300 301 301 301 301 300 299 297 296 295 295 292 292 289 250 262 280 273 271 278 261 271 273 281 275 276 275 276 280 281 286 288
296 304 297 294 291 287 294 287 283 267 271 278 287 293 297 298 299 301 300 299 298 299 300 300 299 295 295 295 288 284 282 275 278 280 265 265 267 270 265 269 267 275 270 277 274 282 283 280 286
300 306 298 294 291 290 286 284 282 286 270 272 285 293 298 301 301 299 300 298 297 297 296 297 297 297 296 293 289 283 280 280 279 262 249 245 251 264 277 266 265 266 273 269 278 276 279 284 285
313 307 302 296 292 287 288 283 280 284 284 280 289 296 299 300 300 300 301 299 297 296 294 293 293 293 295 293 288 285 279 278 279 262 264 261 266 267 260 247 260 265 267 271 273 274 276 276 285
328 320 307 302 291 293 298 289 298 295 298 295 294 295 300 300 299 299 298 296 296 294 294 291 290 289 291 290 288 283 281 278 274 274 268 271 274 275 274 266 251 260 264 269 273 272 276 276 277
329 340 324 310 307 305 313 297 299 314 311 309 307 303 303 302 301 298 296 295 295 294 292 290 288 286 287 287 286 284 281 277 274 276 267 268 274 274 277 266 271 254 260 257 266 273 271 275 272
74 64 31 350 329 317 314 314 316 317 314 310 306 306 305 306 305 302 299 297 295 294 291 288 286 285 284 285 284 282 278 277 273 272 273 270 274 272 257 270 276 267 241 257 266 276 273 278 273
86 79 39 27 351 328 341 318 310 311 312 313 311 308 306 305 305 305 304 301 297 295 291 288 285 282 282 281 281 279 278 275 275 272 271 274 274 277 282 279 282 274 272 271 274 278 281 277 275
50 44 30 26 21 11 352 355 340 319 314 313 311 311 309 307 306 305 303 304 302 298 293 289 285 282 280 278 277 276 275 273 271 270 273 272 272 277 284 279 286 286 277 291 286 293 293 295 278
61 45 39 25 27 21 6 331 48 49 12 327 316 314 314 315 316 315 307 305 305 299 295 289 287 283 280 277 275 273 272 270 268 267 268 271 275 275 276 278 281 292 299 296 284 293 294 295 291